Terug naar catalogus

STARLINK-32656

ActiefCommunicatieVLEO
NORAD 62452·PAYLOAD·🇺🇸 United States

Gelanceerd Dec 29, 2024 vanaf Vandenberg Space Force Base

Loading…

Volgende Passages (komende 24 uur)

TLE

VersSource: CelesTrak SupGP

Epoch: Sep 15, 2026, 03:31 UTC

1 62452C 24251W   26258.14701389 -.00100200  00000+0 -29618-2 0  2589
2 62452  53.1583 172.5622 0001223  90.2649 272.0819 15.34425987    17

Volg STARLINK-32656 in realtime met AllMySat

Download on the App Store